Temperature
11 10 9 10 11 12 12 12 12 12 12 12 11 12 12 13 13 13 13 13 12 11 11 11 10 10 10 10 10 10 10 10 10 10 10 10 10 9 9 9 9 9 9 9
10 9 10 11 12 12 12 11 12 12 12 12 11 11 12 12 12 13 13 13 12 11 11 10 10 10 9 9 9 9 9 9 9 9 9 9 9 9 9 8 9 9 9 9
10 10 11 11 11 12 11 11 11 11 11 12 11 11 12 12 13 13 12 12 12 11 11 10 10 9 9 9 9 9 9 9 9 9 9 9 9 8 8 8 8 8 8 8
10 10 11 11 11 11 10 11 11 11 10 10 11 9 11 12 12 12 12 11 11 11 10 10 9 9 9 9 9 9 9 9 9 9 8 8 8 8 8 8 7 8 7 7
9 10 10 10 10 10 10 11 11 10 10 9 10 9 10 12 11 11 11 11 11 10 10 9 9 9 9 8 8 8 8 8 8 8 8 8 8 7 7 7 7 7 7 7
9 10 9 9 10 10 10 10 10 10 9 8 10 10 10 11 11 12 11 11 10 10 9 9 9 8 8 8 8 8 8 8 8 8 8 7 7 7 7 7 7 6 6 6
10 9 10 10 9 10 10 8 8 8 8 9 11 10 10 12 12 12 11 11 10 10 9 9 8 8 8 8 8 8 8 8 7 7 7 7 7 7 6 6 6 6 6 6
9 8 9 9 9 9 9 9 8 8 9 10 10 9 10 12 12 12 11 11 10 9 9 8 8 8 8 7 7 7 7 7 7 7 7 7 7 6 6 6 6 6 6 6
8 8 9 9 9 9 9 9 9 8 8 8 9 11 12 11 11 11 11 10 10 9 9 8 8 8 7 7 7 7 7 7 7 7 7 7 6 6 6 6 6 5 5 5
8 7 9 9 9 8 8 9 8 8 8 8 10 11 10 10 10 10 10 10 9 9 8 8 8 7 7 7 7 7 7 7 7 6 6 6 6 6 6 5 5 5 5 5
8 7 8 8 8 8 8 8 8 8 8 8 8 9 11 10 10 10 10 10 9 9 8 8 7 7 7 7 7 7 7 6 6 6 6 6 5 5 5 5 5 5 5 5
8 7 7 8 8 8 8 9 8 7 7 8 7 8 11 10 10 10 10 10 9 9 8 8 7 7 7 7 6 6 6 6 6 6 5 5 5 5 5 5 4 4 4 4
7 7 6 7 7 7 7 8 8 8 7 6 7 8 10 10 10 10 9 9 9 8 8 7 7 7 6 6 6 6 6 6 6 5 5 5 5 5 5 4 4 4 4 4
7 6 6 7 7 7 7 7 8 7 5 6 7 8 9 9 9 9 9 9 8 8 7 7 7 6 6 6 6 6 6 6 5 5 5 5 5 4 4 4 4 4 3 3
6 6 6 7 8 8 7 7 7 7 6 6 7 8 9 9 9 9 9 8 8 7 7 7 6 6 6 6 6 6 5 5 5 5 5 5 4 4 4 4 3 3 3 3
6 6 6 6 7 7 7 7 7 7 7 7 7 7 9 9 10 9 8 8 7 7 7 6 6 6 5 5 5 5 5 5 5 5 5 4 4 4 4 3 3 3 3 3
6 6 5 5 8 7 6 7 7 7 7 7 7 7 8 8 8 8 8 7 7 7 7 6 6 6 5 5 5 5 5 5 5 4 4 4 4 3 3 3 3 3 2 2
5 5 5 5 6 6 8 9 9 8 8 8 8 8 8 8 8 8 8 7 7 6 6 6 6 5 5 5 5 5 4 4 4 4 4 4 4 3 3 3 3 2 2 2
5 5 4 5 5 6 8 8 8 7 7 8 8 8 8 8 7 7 7 7 7 6 6 6 5 5 5 5 5 4 4 4 4 4 4 4 3 3 3 3 2 2 2 2
4 4 4 4 5 5 8 8 8 7 6 8 8 7 7 7 5 6 7 6 6 6 5 5 5 5 5 4 4 4 4 3 3 3 3 3 3 3 2 2 2 2 1 1
3 3 3 3 4 5 8 7 7 6 7 8 8 8 7 6 6 6 6 6 5 5 5 5 4 4 4 4 4 3 3 3 3 3 3 2 2 2 2 2 2 1 1 1
3 3 3 4 4 5 7 6 6 7 8 8 7 7 7 6 6 6 5 5 5 5 4 4 4 4 4 3 3 3 3 3 2 2 2 2 2 2 1 1 1 1 0 0
5 5 5 5 6 8 8 8 8 8 7 7 7 6 6 6 5 5 5 5 4 4 4 4 4 3 3 3 3 3 2 2 2 2 2 2 2 1 1 1 1 0 0 -0
6 6 5 5 6 7 8 8 8 7 7 7 6 6 6 5 5 5 4 4 4 4 4 3 3 3 3 3 3 2 2 2 2 2 1 1 1 1 1 0 0 -0 -0 -1
6 5 4 4 5 7 7 7 7 7 6 6 6 5 5 5 5 4 4 4 4 3 3 3 3 3 3 2 2 2 2 1 1 1 1 1 1 1 0 0 -0 -0 -0 -1
5 5 4 4 6 6 6 7 6 6 6 5 5 5 5 4 4 4 4 3 3 3 3 3 2 2 2 2 2 2 2 1 1 1 1 1 0 0 -0 -0 -0 -0 -1 -1
Wind_Speed
0 1 1 0 2 4 3 1 1 1 3 2 4 6 6 5 6 6 5 5 5 4 5 6 6 5 4 3 1 1 2 2 2 2 2 2 2 3 3 3 5 7 8 8
1 2 3 2 2 3 2 2 1 2 2 2 4 7 6 6 6 6 5 5 5 4 4 5 6 5 4 2 1 1 2 2 2 2 1 1 2 2 2 2 4 6 7 7
3 1 2 2 1 2 1 2 2 2 2 4 3 5 6 5 5 4 3 3 4 4 4 5 5 5 4 3 2 1 2 2 2 2 1 2 2 2 2 3 3 4 5 6
3 2 2 1 3 3 1 3 2 2 2 2 2 3 4 5 6 6 5 4 4 3 3 4 5 5 4 3 2 1 1 1 1 1 1 1 1 2 2 2 2 3 5 5
2 3 3 3 3 3 1 3 3 4 3 3 4 3 5 5 5 6 6 5 4 3 4 4 4 4 4 4 3 1 0 0 1 1 1 1 1 1 2 2 2 3 3 4
1 1 3 3 2 2 2 3 3 2 1 3 5 4 4 3 5 5 6 6 5 4 3 4 3 4 4 4 3 2 1 1 0 0 1 1 1 2 2 3 3 3 2 3
1 2 2 1 2 1 2 1 1 1 1 4 3 3 5 2 4 4 5 5 5 5 4 4 4 3 3 3 3 2 2 1 1 0 0 1 1 1 2 2 2 3 3 3
1 0 2 1 2 2 2 1 1 1 2 2 1 5 3 5 6 5 4 4 4 4 4 4 4 4 3 3 3 3 3 2 1 1 1 1 1 1 1 2 2 2 2 3
3 1 2 1 3 3 2 0 1 1 3 3 5 4 2 5 5 4 3 3 2 3 3 3 3 3 3 3 3 3 3 2 2 2 1 1 1 1 1 2 2 2 2 3
3 2 1 2 1 2 3 3 1 1 2 4 4 4 2 4 3 3 3 3 2 2 2 3 3 3 3 3 3 4 4 3 2 2 2 1 1 1 2 1 2 2 3 3
3 2 1 2 3 3 2 2 2 2 3 2 4 3 2 4 4 3 2 2 2 3 3 2 3 3 3 3 4 4 4 4 3 3 2 2 2 2 2 2 2 2 3 3
3 2 3 3 1 2 2 3 3 2 3 3 3 5 2 5 4 3 2 0 1 2 2 3 3 3 3 4 4 4 4 3 3 3 3 3 2 2 2 2 2 2 3 3
3 2 3 1 0 1 3 4 4 3 2 4 4 5 2 4 2 1 1 2 2 2 2 2 3 4 4 4 4 4 4 4 3 3 3 3 3 2 2 2 2 2 3 3
3 3 5 5 3 2 5 6 6 5 4 6 8 8 4 2 2 2 2 2 2 2 2 2 3 3 4 4 4 4 4 4 4 3 3 3 3 3 3 2 2 2 2 3
2 4 6 9 10 9 10 10 10 11 10 8 8 8 8 5 4 3 2 2 2 3 3 3 3 3 3 3 4 4 4 4 4 4 4 4 3 3 2 2 2 2 2 3
3 4 6 8 9 9 12 13 13 12 12 13 13 14 8 4 3 2 3 3 3 3 3 3 3 3 3 4 4 4 4 4 4 4 4 3 3 2 2 3 2 2 3 3
3 3 3 5 5 7 9 10 12 8 8 9 12 9 4 4 4 4 4 4 4 4 3 3 3 3 4 4 3 4 4 4 4 5 4 4 3 3 3 3 3 3 3 3
3 3 3 5 6 7 5 1 3 6 8 8 7 6 4 4 4 4 3 3 3 3 4 4 3 3 3 3 3 3 3 4 4 5 5 4 4 4 4 3 4 4 3 3
4 3 3 3 5 8 6 2 2 3 5 6 7 5 3 3 4 4 3 1 2 3 3 3 3 3 3 3 3 3 3 4 4 5 5 5 5 5 4 4 4 4 3 4
2 3 4 4 5 6 3 2 2 1 4 2 1 3 2 1 3 4 1 2 3 3 2 3 3 3 3 4 3 3 4 4 5 5 5 5 5 5 5 5 4 3 3 4
3 4 6 7 7 8 3 3 3 2 3 1 1 1 2 3 5 4 3 3 3 3 3 3 3 3 4 3 3 4 4 5 5 4 4 4 4 5 5 4 3 3 3 3
7 6 7 6 6 8 3 4 4 4 2 2 2 2 3 4 5 4 4 4 4 4 4 4 3 4 4 3 4 4 5 5 3 3 4 4 4 4 3 3 3 3 3 3
8 7 5 7 8 5 4 5 5 3 4 4 3 3 3 5 5 5 5 5 5 5 4 3 3 4 4 3 4 5 5 4 3 4 4 4 4 4 3 4 4 3 3 3
5 4 5 7 9 8 7 7 6 5 5 4 4 5 5 6 6 6 5 5 5 5 4 4 4 4 5 4 4 5 4 4 4 4 4 4 4 4 4 3 4 4 4 4
6 3 6 10 10 10 9 7 5 5 4 4 5 6 6 6 6 6 6 5 5 5 4 4 4 5 6 5 5 4 3 3 4 4 4 4 4 4 4 4 4 5 5 5
8 9 9 11 8 6 6 4 4 5 6 6 6 6 6 6 7 6 6 5 5 5 4 4 5 5 6 5 5 4 4 4 4 4 4 4 4 4 4 4 4 6 6 8
Wind_Direction
77 69 82 128 277 304 304 284 243 108 119 225 231 247 247 213 206 208 203 187 174 173 156 139 137 127 116 106 97 75 42 23 34 28 15 3 356 346 347 357 359 357 350 348
95 47 12 337 288 283 312 303 341 67 99 257 254 264 257 222 208 202 202 183 170 169 160 153 145 134 129 126 105 72 58 28 28 32 1 326 328 324 325 352 0 354 349 347
72 35 323 304 309 282 356 343 18 5 317 241 251 273 236 202 192 177 183 172 165 170 171 156 146 137 132 127 112 59 47 21 18 24 6 356 350 332 355 355 350 346 345 345
55 17 344 1 18 348 358 1 345 299 308 269 233 280 252 195 187 191 188 182 183 170 156 149 148 139 137 133 115 79 47 21 2 7 358 336 333 328 324 332 332 343 351 346
55 18 9 24 9 349 10 324 293 278 285 300 243 236 257 189 198 195 181 175 168 156 155 154 149 146 143 134 130 137 171 298 347 360 344 324 327 315 316 327 332 339 341 342
118 49 20 9 357 335 300 290 268 256 296 274 230 210 262 202 195 179 166 158 149 146 147 145 142 141 143 139 140 163 198 231 263 326 331 321 308 314 322 325 325 327 330 335
113 125 112 313 320 305 300 348 7 343 241 247 188 209 250 198 127 135 141 149 154 159 160 156 156 154 155 156 167 189 197 221 227 236 290 301 295 297 293 305 310 318 320 323
345 75 121 30 359 327 294 321 13 264 269 297 207 232 240 110 97 93 103 124 141 157 159 164 170 168 175 184 186 192 202 215 209 213 243 266 271 259 267 291 301 307 308 310
356 17 92 43 350 327 312 299 4 310 288 268 245 225 155 114 109 119 132 140 158 162 160 167 170 174 185 192 194 197 203 209 207 207 216 246 267 269 276 286 293 292 295 305
337 304 214 130 229 239 296 327 321 261 290 282 268 242 207 162 170 171 164 157 161 143 149 170 180 193 199 195 200 198 197 201 205 198 213 244 258 263 270 284 290 294 297 302
321 292 249 211 219 204 191 235 241 270 274 275 293 288 38 134 140 151 151 143 166 169 180 190 198 199 204 203 202 203 200 196 196 201 209 223 243 251 258 265 274 285 292 296
358 315 268 234 122 23 266 242 205 215 265 244 267 271 64 101 99 104 103 139 200 199 191 198 214 209 211 216 212 207 199 199 201 199 204 217 226 232 249 263 275 285 292 299
343 295 300 257 157 190 252 248 248 257 284 246 242 255 141 121 127 93 285 250 230 226 214 218 226 225 224 223 216 208 202 200 200 196 203 216 221 226 241 258 274 285 290 296
308 261 238 247 279 265 249 240 226 215 219 245 238 255 263 254 278 292 278 253 233 243 239 237 244 239 236 232 220 210 204 196 198 199 205 217 224 229 238 250 262 273 280 285
259 266 267 275 277 271 262 250 229 225 227 238 262 271 276 287 290 283 290 274 254 254 252 251 251 249 249 242 229 218 211 198 195 202 211 220 224 225 230 244 257 268 274 283
242 271 291 280 259 255 260 249 238 236 237 246 265 275 276 280 293 302 300 288 273 257 254 258 265 260 257 250 234 220 214 204 196 205 214 214 215 220 227 239 248 259 264 270
234 262 289 280 298 302 269 241 219 219 218 219 241 253 291 301 300 297 283 273 271 266 265 260 264 268 262 254 238 221 219 206 201 207 212 210 211 221 230 238 242 251 256 260
250 256 267 287 307 259 246 80 173 222 239 230 247 269 276 280 288 291 274 264 278 276 272 269 258 261 265 255 247 229 211 207 209 213 214 211 210 220 226 230 238 243 248 254
243 239 255 265 276 277 271 195 158 218 267 239 239 259 280 309 325 294 262 259 278 281 273 262 253 254 257 251 241 227 220 215 216 222 221 216 211 216 221 230 239 242 245 253
248 248 250 250 259 261 274 123 84 95 278 283 225 262 286 332 303 279 344 354 314 295 280 274 268 265 255 250 232 224 226 222 228 230 227 220 214 215 222 228 234 240 246 254
186 210 224 238 251 266 271 140 124 185 255 341 351 269 266 253 250 264 305 305 294 284 279 271 265 260 254 243 220 230 235 236 239 236 232 223 219 221 224 224 227 238 245 252
192 198 207 207 228 252 189 145 200 241 314 335 316 286 275 273 279 281 280 281 284 280 273 265 261 264 261 240 222 235 242 243 238 234 233 228 222 225 226 222 228 232 235 247
206 208 210 210 228 258 188 221 243 277 291 291 288 284 277 276 275 277 273 273 274 270 267 261 255 265 264 245 225 237 246 238 230 230 231 229 224 222 219 219 224 229 231 240
236 224 251 268 264 271 265 263 266 266 263 275 279 276 268 266 268 271 271 270 271 272 264 257 253 259 264 254 239 235 238 228 220 231 234 226 223 228 226 225 223 224 226 233
251 232 252 265 273 282 269 258 263 272 278 285 281 271 263 265 268 265 267 266 265 268 262 248 247 254 259 259 253 241 231 220 225 234 235 230 227 229 231 231 229 232 230 229
228 232 238 255 259 266 281 293 292 282 273 268 272 276 271 259 263 267 267 266 263 264 262 253 251 254 258 256 258 249 231 218 220 233 235 230 228 230 231 237 254 252 251 255
Height
1494 1497 1498 1496 1495 1493 1493 1492 1493 1493 1493 1495 1496 1494 1492 1492 1492 1493 1494 1496 1497 1499 1501 1502 1502 1503 1503 1504 1504 1504 1504 1503 1503 1502 1503 1502 1502 1502 1502 1502 1501 1501 1500 1500
1497 1499 1498 1495 1494 1494 1494 1495 1494 1494 1493 1495 1495 1493 1489 1488 1489 1490 1492 1493 1495 1497 1499 1500 1500 1501 1501 1502 1502 1502 1502 1501 1501 1501 1501 1501 1500 1500 1500 1500 1499 1499 1498 1497
1499 1501 1498 1496 1496 1495 1496 1498 1498 1499 1496 1494 1495 1494 1487 1484 1486 1488 1490 1491 1493 1495 1496 1497 1498 1499 1499 1500 1500 1500 1500 1500 1500 1500 1499 1499 1498 1498 1498 1497 1496 1496 1495 1494
1500 1499 1498 1498 1498 1498 1500 1498 1498 1498 1501 1501 1497 1504 1489 1483 1485 1486 1488 1490 1491 1493 1494 1496 1496 1497 1497 1498 1499 1499 1499 1499 1498 1498 1497 1497 1496 1496 1495 1495 1494 1493 1492 1491
1502 1501 1500 1501 1501 1500 1501 1499 1499 1499 1500 1503 1497 1501 1491 1482 1484 1484 1486 1488 1490 1491 1493 1494 1494 1495 1496 1497 1497 1497 1497 1497 1496 1496 1496 1495 1494 1494 1493 1492 1491 1490 1489 1488
1503 1503 1503 1503 1502 1501 1501 1500 1499 1499 1503 1509 1497 1499 1493 1483 1481 1481 1483 1486 1488 1490 1491 1492 1493 1493 1494 1495 1495 1495 1495 1495 1494 1494 1494 1493 1493 1492 1491 1490 1488 1487 1486 1485
1503 1503 1504 1504 1503 1503 1502 1506 1509 1509 1509 1504 1490 1494 1491 1477 1476 1478 1481 1484 1486 1488 1489 1490 1491 1491 1492 1492 1492 1493 1492 1492 1492 1492 1491 1491 1491 1490 1488 1487 1486 1485 1483 1482
1506 1508 1505 1505 1505 1506 1504 1505 1512 1513 1508 1499 1494 1495 1485 1476 1477 1479 1481 1484 1486 1487 1488 1488 1489 1489 1490 1490 1490 1490 1490 1490 1490 1489 1489 1489 1488 1487 1486 1485 1484 1482 1481 1480
1508 1509 1506 1505 1506 1506 1505 1506 1506 1510 1507 1506 1495 1483 1479 1477 1479 1481 1482 1484 1485 1486 1487 1487 1488 1488 1488 1488 1488 1488 1488 1487 1487 1487 1486 1486 1485 1484 1483 1482 1481 1480 1479 1477
1509 1511 1506 1506 1506 1507 1507 1506 1509 1511 1510 1506 1491 1483 1485 1482 1481 1481 1482 1483 1484 1485 1485 1486 1486 1486 1486 1486 1486 1486 1485 1485 1484 1484 1483 1483 1482 1481 1480 1479 1478 1477 1476 1474
1510 1511 1509 1506 1506 1506 1508 1508 1507 1508 1507 1509 1503 1493 1477 1478 1478 1480 1481 1482 1483 1484 1484 1484 1484 1484 1484 1483 1483 1482 1482 1482 1481 1481 1480 1480 1479 1478 1477 1476 1475 1474 1473 1471
1510 1512 1511 1505 1503 1503 1504 1503 1505 1512 1509 1506 1509 1498 1477 1477 1478 1479 1480 1481 1482 1482 1482 1482 1482 1481 1481 1480 1480 1479 1479 1478 1478 1478 1477 1477 1476 1475 1474 1473 1472 1471 1469 1468
1512 1513 1514 1507 1509 1507 1505 1502 1502 1504 1508 1508 1507 1495 1478 1477 1478 1479 1479 1479 1480 1480 1479 1479 1479 1478 1478 1477 1477 1476 1476 1475 1475 1475 1474 1474 1473 1472 1471 1470 1469 1467 1466 1465
1513 1512 1513 1509 1503 1503 1503 1501 1501 1505 1511 1505 1496 1487 1479 1478 1478 1478 1478 1477 1477 1477 1477 1476 1475 1475 1474 1474 1473 1473 1472 1472 1472 1471 1471 1470 1470 1469 1468 1467 1465 1464 1463 1462
1512 1512 1506 1503 1499 1498 1497 1496 1497 1499 1498 1498 1487 1482 1477 1477 1476 1476 1475 1475 1475 1474 1474 1473 1473 1472 1471 1470 1470 1469 1469 1468 1468 1467 1467 1467 1466 1465 1464 1463 1462 1461 1460 1459
1510 1510 1506 1502 1495 1493 1492 1489 1489 1490 1489 1488 1485 1481 1474 1474 1474 1473 1473 1473 1472 1471 1471 1470 1470 1469 1468 1467 1466 1466 1465 1465 1464 1464 1463 1463 1462 1462 1461 1460 1459 1458 1457 1456
1509 1509 1508 1503 1492 1492 1490 1478 1480 1481 1478 1480 1481 1476 1472 1472 1472 1471 1471 1470 1469 1469 1468 1467 1466 1466 1465 1464 1463 1462 1461 1461 1460 1460 1460 1459 1459 1458 1457 1456 1455 1454 1453 1452
1508 1508 1509 1505 1499 1497 1477 1469 1469 1472 1472 1472 1472 1470 1470 1470 1470 1469 1468 1467 1466 1466 1465 1464 1463 1462 1461 1460 1459 1459 1458 1457 1456 1456 1456 1455 1455 1454 1453 1453 1452 1451 1450 1449
1506 1508 1508 1506 1501 1487 1472 1469 1469 1472 1471 1467 1467 1467 1468 1467 1467 1466 1466 1465 1464 1463 1462 1461 1460 1458 1457 1456 1456 1455 1454 1453 1452 1452 1451 1451 1451 1450 1449 1449 1448 1447 1446 1445
1506 1507 1510 1504 1501 1492 1472 1470 1468 1471 1473 1464 1464 1465 1465 1466 1468 1465 1463 1462 1461 1460 1458 1457 1456 1454 1453 1452 1452 1450 1449 1449 1448 1448 1447 1447 1446 1446 1445 1445 1444 1443 1442 1441
1507 1508 1508 1504 1498 1483 1470 1469 1470 1476 1470 1464 1463 1463 1463 1464 1464 1462 1460 1458 1457 1456 1455 1453 1452 1450 1449 1448 1447 1446 1445 1444 1444 1443 1443 1442 1442 1442 1441 1441 1440 1439 1438 1437
1497 1500 1499 1496 1495 1484 1467 1468 1470 1467 1463 1462 1461 1461 1461 1460 1459 1457 1456 1455 1453 1452 1451 1449 1447 1446 1445 1444 1443 1441 1441 1440 1440 1439 1438 1438 1437 1437 1437 1436 1436 1435 1434 1433
1484 1483 1482 1481 1476 1466 1464 1463 1463 1462 1461 1460 1459 1458 1458 1456 1455 1453 1452 1451 1449 1448 1447 1445 1443 1442 1440 1440 1439 1437 1437 1436 1435 1434 1433 1433 1433 1432 1432 1432 1431 1431 1430 1429
1476 1474 1475 1472 1464 1461 1461 1460 1459 1459 1457 1456 1456 1455 1453 1452 1450 1449 1448 1446 1445 1443 1442 1441 1439 1437 1435 1435 1434 1433 1432 1432 1431 1430 1429 1428 1428 1428 1427 1427 1427 1426 1425 1424
1473 1472 1472 1468 1461 1458 1456 1456 1455 1454 1453 1452 1451 1450 1449 1447 1446 1444 1443 1441 1440 1438 1437 1436 1434 1432 1431 1430 1429 1429 1428 1427 1426 1425 1424 1424 1423 1423 1422 1422 1422 1421 1421 1421
1466 1467 1467 1461 1456 1455 1452 1452 1451 1450 1448 1448 1446 1445 1444 1443 1441 1439 1437 1436 1435 1433 1432 1430 1429 1427 1426 1425 1424 1424 1423 1422 1421 1420 1420 1419 1419 1418 1418 1417 1417 1417 1417 1416